Terminal Aerodrome Forecast
Issued by NWS Wichita, KS

Home | Current Version | Previous Version | Graphics & Text | Print | Product List | Glossary On
Versions: 1 2 3 4 5 6 7 8 9 10 11 12 13 14 15 16 17 18 19 20 21 22 23 24 25
951
FTUS43 KICT 261922 AAA
TAFICT
TAF AMD
KICT 261922Z 2619/2718 20015G22KT P6SM VCTS BKN045CB
      TEMPO 2619/2622 VRB20G40KT 2SM +TSRA
     FM270600 20010KT P6SM SCT150=

USA.gov is the U.S. government's official web portal to all federal, state and local government web resources and services.